TimeCST,TemperatureF,Dew PointF,Humidity,Sea Level PressureIn,VisibilityMPH,Wind Direction,Wind SpeedMPH,Gust SpeedMPH,PrecipitationIn,Events,Conditions,WindDirDegrees,DateUTC
12:15 AM,39.2,11.3,32,30.01,10.0,SSW,9.2,-,N/A,,Clear,210,2014-01-31 06:15:00
12:35 AM,38.8,11.3,32,30.00,10.0,SSW,12.7,-,N/A,,Clear,200,2014-01-31 06:35:00
12:55 AM,39.0,11.3,32,30.00,10.0,SSW,11.5,-,N/A,,Clear,210,2014-01-31 06:55:00
1:15 AM,38.7,11.8,33,30.00,10.0,SSW,9.2,-,N/A,,Clear,200,2014-01-31 07:15:00
1:35 AM,37.0,14.0,39,30.01,10.0,South,6.9,-,N/A,,Clear,180,2014-01-31 07:35:00
1:55 AM,37.2,13.8,38,30.02,10.0,South,6.9,-,N/A,,Clear,190,2014-01-31 07:55:00
2:15 AM,36.7,14.2,40,30.02,10.0,South,8.1,-,N/A,,Clear,170,2014-01-31 08:15:00
2:35 AM,35.1,13.5,41,30.02,10.0,South,8.1,-,N/A,,Clear,190,2014-01-31 08:35:00
2:55 AM,33.6,14.4,45,30.04,10.0,South,5.8,-,N/A,,Clear,170,2014-01-31 08:55:00
3:15 AM,31.1,16.0,54,30.04,10.0,SSE,3.5,-,N/A,,Clear,160,2014-01-31 09:15:00
3:35 AM,30.0,16.2,56,30.04,10.0,SE,3.5,-,N/A,,Clear,140,2014-01-31 09:35:00
3:55 AM,30.7,14.9,52,30.05,10.0,SSE,4.6,-,N/A,,Clear,150,2014-01-31 09:55:00
4:15 AM,30.7,14.0,50,30.05,10.0,South,3.5,-,N/A,,Clear,180,2014-01-31 10:15:00
4:35 AM,29.7,14.7,54,30.06,10.0,South,4.6,-,N/A,,Clear,170,2014-01-31 10:35:00
4:55 AM,27.3,16.5,64,30.05,10.0,SE,4.6,-,N/A,,Clear,140,2014-01-31 10:55:00
5:15 AM,26.6,16.3,65,30.05,10.0,SE,5.8,-,N/A,,Clear,140,2014-01-31 11:15:00
5:35 AM,26.1,18.0,71,30.05,10.0,SE,6.9,-,N/A,,Clear,140,2014-01-31 11:35:00
5:55 AM,26.6,17.8,69,30.06,10.0,SSE,5.8,-,N/A,,Clear,150,2014-01-31 11:55:00
6:15 AM,26.8,18.3,70,30.06,10.0,SSE,5.8,-,N/A,,Clear,150,2014-01-31 12:15:00
6:35 AM,27.1,18.7,70,30.06,10.0,SSE,5.8,-,N/A,,Clear,150,2014-01-31 12:35:00
6:55 AM,27.0,18.1,69,30.07,10.0,SE,3.5,-,N/A,,Clear,140,2014-01-31 12:55:00
7:15 AM,26.8,18.1,70,30.08,10.0,SSE,4.6,-,N/A,,Clear,150,2014-01-31 13:15:00
7:35 AM,28.8,19.6,69,30.08,10.0,SSE,4.6,-,N/A,,Clear,150,2014-01-31 13:35:00
7:55 AM,30.9,20.7,66,30.09,10.0,SSE,3.5,-,N/A,,Clear,150,2014-01-31 13:55:00
8:15 AM,32.0,20.1,62,30.10,10.0,Calm,Calm,-,N/A,,Clear,0,2014-01-31 14:15:00
8:35 AM,33.8,18.7,54,30.11,10.0,South,3.5,-,N/A,,Clear,170,2014-01-31 14:35:00
8:55 AM,36.1,16.7,45,30.12,10.0,South,3.5,-,N/A,,Clear,170,2014-01-31 14:55:00
9:15 AM,37.9,15.3,40,30.11,10.0,Calm,Calm,-,N/A,,Clear,0,2014-01-31 15:15:00
9:35 AM,39.7,15.8,38,30.11,10.0,SSE,4.6,-,N/A,,Clear,160,2014-01-31 15:35:00
9:55 AM,41.9,15.3,34,30.10,10.0,Calm,Calm,-,N/A,,Clear,0,2014-01-31 15:55:00
10:15 AM,42.1,15.6,34,30.12,10.0,South,5.8,-,N/A,,Clear,180,2014-01-31 16:15:00
10:35 AM,43.9,15.8,32,30.11,10.0,SSE,5.8,-,N/A,,Clear,160,2014-01-31 16:35:00
10:55 AM,44.2,15.8,32,30.11,10.0,Calm,Calm,-,N/A,,Clear,0,2014-01-31 16:55:00
11:15 AM,45.7,16.9,32,30.08,10.0,SE,4.6,-,N/A,,Clear,130,2014-01-31 17:15:00
11:35 AM,43.9,16.9,34,30.09,10.0,Calm,Calm,-,N/A,,Clear,0,2014-01-31 17:35:00
11:55 AM,45.7,17.4,32,30.09,10.0,Calm,Calm,-,N/A,,Clear,0,2014-01-31 17:55:00
12:15 PM,45.5,18.0,33,30.08,10.0,SSE,4.6,-,N/A,,Clear,160,2014-01-31 18:15:00
12:35 PM,44.6,18.5,35,30.07,10.0,SSE,3.5,-,N/A,,Clear,160,2014-01-31 18:35:00
12:55 PM,44.8,18.5,35,30.08,10.0,Calm,Calm,-,N/A,,Mostly Cloudy,0,2014-01-31 18:55:00
1:15 PM,44.2,18.9,36,30.06,10.0,East,3.5,-,N/A,,Overcast,100,2014-01-31 19:15:00
1:35 PM,44.1,20.8,40,30.05,10.0,East,6.9,-,N/A,,Overcast,80,2014-01-31 19:35:00
1:55 PM,44.1,21.0,40,30.05,10.0,East,5.8,-,N/A,,Overcast,100,2014-01-31 19:55:00
2:15 PM,44.1,21.6,41,30.05,10.0,East,4.6,-,N/A,,Overcast,80,2014-01-31 20:15:00
2:35 PM,44.1,22.5,42,30.05,10.0,East,3.5,-,N/A,,Overcast,80,2014-01-31 20:35:00
2:55 PM,42.8,25.7,51,30.05,10.0,NE,5.8,-,N/A,,Overcast,40,2014-01-31 20:55:00
3:15 PM,42.3,25.0,50,30.05,10.0,NE,6.9,-,N/A,,Overcast,40,2014-01-31 21:15:00
3:35 PM,43.7,23.7,45,30.04,10.0,ENE,8.1,-,N/A,,Overcast,70,2014-01-31 21:35:00
3:55 PM,43.3,23.4,45,30.03,10.0,East,9.2,-,N/A,,Mostly Cloudy,90,2014-01-31 21:55:00
4:15 PM,43.2,23.7,46,30.03,10.0,East,5.8,-,N/A,,Overcast,80,2014-01-31 22:15:00
4:35 PM,41.9,29.1,61,30.04,10.0,SSE,8.1,-,N/A,,Overcast,160,2014-01-31 22:35:00
5:00 PM,41.0,33.8,76,30.04,10.0,East,3.5,-,N/A,,Overcast,80,2014-01-31 23:00:00
5:15 PM,41.4,33.4,73,30.04,10.0,ENE,3.5,-,N/A,,Overcast,70,2014-01-31 23:15:00
5:35 PM,41.4,32.0,69,30.05,10.0,SSE,10.4,-,N/A,,Overcast,150,2014-01-31 23:35:00
5:55 PM,39.2,35.1,85,30.05,10.0,SSE,9.2,-,N/A,,Overcast,150,2014-01-31 23:55:00
6:15 PM,37.9,36.3,94,30.06,5.0,SSE,9.2,-,N/A,,Light Drizzle,160,2014-02-01 00:15:00
6:35 PM,37.4,36.7,97,30.06,3.0,SSE,5.8,-,N/A,,Light Drizzle,150,2014-02-01 00:35:00
6:55 PM,36.9,36.9,100,30.06,2.5,SE,3.5,-,N/A,,Overcast,130,2014-02-01 00:55:00
7:15 PM,36.5,36.5,100,30.05,1.8,ESE,4.6,-,N/A,,Overcast,120,2014-02-01 01:15:00
7:35 PM,36.5,36.5,100,30.04,1.8,ESE,5.8,-,N/A,,Overcast,110,2014-02-01 01:35:00
7:55 PM,36.5,36.5,100,30.04,1.5,East,5.8,-,N/A,,Overcast,100,2014-02-01 01:55:00
8:15 PM,36.7,36.7,100,30.04,1.8,ESE,5.8,-,N/A,,Overcast,110,2014-02-01 02:15:00
8:35 PM,36.5,36.5,100,30.05,1.5,East,4.6,-,N/A,,Overcast,100,2014-02-01 02:35:00
8:55 PM,36.5,36.5,100,30.03,1.5,ESE,6.9,-,N/A,,Overcast,110,2014-02-01 02:55:00
9:15 PM,36.7,36.7,100,30.02,1.5,ESE,5.8,-,N/A,,Overcast,110,2014-02-01 03:15:00
9:35 PM,36.9,36.9,100,30.03,1.5,Calm,Calm,-,N/A,,Overcast,0,2014-02-01 03:35:00
9:55 PM,36.9,36.9,100,30.01,1.2,East,3.5,-,N/A,,Overcast,80,2014-02-01 03:55:00
10:15 PM,36.7,36.7,100,30.01,1.2,East,3.5,-,N/A,,Overcast,80,2014-02-01 04:15:00
10:35 PM,37.2,37.2,100,30.00,1.2,East,3.5,-,N/A,,Overcast,80,2014-02-01 04:35:00
10:55 PM,36.9,36.9,100,30.00,1.5,Calm,Calm,-,N/A,,Overcast,0,2014-02-01 04:55:00
11:15 PM,36.7,36.7,100,30.01,1.0,East,3.5,-,N/A,,Overcast,90,2014-02-01 05:15:00
11:35 PM,36.9,36.9,100,30.01,1.2,ESE,3.5,-,N/A,,Overcast,120,2014-02-01 05:35:00
11:55 PM,37.0,37.0,100,30.00,1.0,East,3.5,-,N/A,,Overcast,100,2014-02-01 05:55:00